Satellite-Ground Cal/Val Site Overpasses Predictions

Prediction of Satellite NPP Overpassing Cal/Val Site: Antarctic Dome C

Ground Cal/Val Site Location: Latitude: -75.10, Longitude: 123.35; Satellite-Ground Site NADIR distance within 100 km.

Table of predicted overpasses for the next 14.0 days since TLE Epoch: 8/7/2021
Interval Starting Time Ending Time Minimum Distance Time Minimum Distance (km)
1 08/07/2021 07:19:24 08/07/2021 07:19:44 08/07/2021 07:19:34 72.85
2 08/09/2021 15:01:41 08/09/2021 15:02:04 08/09/2021 15:01:53 61.87
3 08/10/2021 14:42:51 08/10/2021 14:43:17 08/10/2021 14:43:04 47.40
4 08/11/2021 07:44:34 08/11/2021 07:44:54 08/11/2021 07:44:44 72.42
5 08/12/2021 07:25:41 08/12/2021 07:26:08 08/12/2021 07:25:54 35.44
6 08/14/2021 15:08:12 08/14/2021 15:08:13 08/14/2021 15:08:13 99.81
7 08/15/2021 14:49:09 08/15/2021 14:49:38 08/15/2021 14:49:24 11.53
8 08/17/2021 07:32:00 08/17/2021 07:32:29 08/17/2021 07:32:14 2.81
